This demonstration page uses our WeatherBlox Daily Observations layout. Learn more.

Left ArrowRight Arrow

39.08367, -84.50855

Hourly Observations for March 18, 2018

Temp ( °F °C ) Dew Point ( °F °C ) Humidity (%) Winds ( mph kmh ) Pressure ( in mb ) Visibility ( mi km ) Precip ( " mm )
12:53 am 00:53 Cloudy 41 5 34 1.1 76 76 NNE 9 15 30.00 1016 10 16 N/A
1:53 am 01:53 Cloudy 40 4.4 32 undefined 73 73 NE 6 9 30.02 1017 10 16 N/A
2:53 am 02:53 Mostly Cloudy 38 3.3 29 -1.7 70 70 NNE 9 15 30.04 1017 10 16 N/A
3:53 am 03:53 Clear 35 1.7 27 -2.8 72 72 N N/A 30.04 1017 10 16 N/A
4:53 am 04:53 Clear 32 undefined 26 -3.3 79 79 N N/A 30.05 1018 10 16 N/A
5:53 am 05:53 Clear 28 -2.2 26 -3.3 92 92 N N/A 30.06 1018 10 16 N/A
6:53 am 06:53 Clear 28 -2.2 26 -3.3 92 92 N N/A 30.08 1019 10 16 N/A
7:53 am 07:53 Sunny 26 -3.3 25 -3.9 96 96 N N/A 30.10 1019 8 13 N/A
8:53 am 08:53 Sunny 30 -1.1 30 -1.1 100 100 N N/A 30.11 1020 8 13 N/A
9:53 am 09:53 Sunny 37 2.8 28 -2.2 70 70 NE 7 11 30.11 1020 10 16 N/A
10:53 am 10:53 Sunny 43 6.1 28 -2.2 56 56 NNE 7 11 30.11 1020 10 16 N/A
11:53 am 11:53 Sunny 48 8.9 20 -6.7 33 33 ENE 10 17 30.09 1019 10 16 N/A
12:53 pm 12:53 Sunny 51 10.6 20 -6.7 29 29 VRB 6 9 30.08 1019 10 16 N/A
1:53 pm 13:53 Sunny 53 11.7 19 -7.2 26 26 N N/A 30.05 1018 10 16 N/A
2:53 pm 14:53 Sunny 56 13.3 21 -6.1 26 26 N 6 9 30.02 1017 10 16 N/A
3:53 pm 15:53 Sunny 57 13.9 19 -7.2 23 23 SSW 5 7 29.98 1015 10 16 N/A
4:53 pm 16:53 Sunny 58 14.4 19 -7.2 22 22 VRB 6 9 29.96 1015 10 16 N/A
5:53 pm 17:53 Sunny 58 14.4 20 -6.7 23 23 NNE 6 9 29.95 1014 10 16 N/A
6:53 pm 18:53 Sunny 55 12.8 22 -5.6 28 28 E 7 11 29.93 1014 10 16 N/A
7:53 pm 19:53 Clear 52 11.1 21 -6.1 30 30 E 3 6 29.94 1014 10 16 N/A
8:53 pm 20:53 Clear 43 6.1 31 -0.6 63 63 N N/A 29.93 1014 10 16 N/A
9:53 pm 21:53 Clear 41 5 32 undefined 70 70 N N/A 29.94 1014 10 16 N/A
10:53 pm 22:53 Clear 38 3.3 30 -1.1 73 73 NNE 5 7 29.92 1013 10 16 N/A
11:53 pm 23:53 Clear 34 1.1 29 -1.7 82 82 NE 3 6 29.91 1013 10 16 N/A

Powered by AerisWeather